Location: Newark
(42.7133°N, 87.7910°W)
Time: 05:04:31
(UTC+00:00)

Vanguard 1 Rocket - Pass Details

Date: 23 September 2019
Orbit: 650 x 4226 km, 34.3° (Epoch: 13 October)

Event Time Altitude Azimuth Distance (km) Brightness Sun altitude
Rises 03:01:55 0° 273° (W) 7,335 12.7 -33.9°
Reaches altitude 10° 03:07:48 10° 269° (W) 5,761 12.0 -34.8°
Enters shadow 03:21:38 47° 209° (SSW) 2,271 9.1 -36.7°
